This demonstration page uses our WeatherBlox Daily Observations layout. Learn more.

Left ArrowRight Arrow

39.08367, -84.50855

Hourly Observations for March 16, 2016

Temp ( °F °C ) Dew Point ( °F °C ) Humidity (%) Winds ( mph kmh ) Pressure ( in mb ) Visibility ( mi km ) Precip ( " mm )
12:53 am 00:53 Clear 66 18.9 51 10.6 59 59 S 9 15 29.57 1001 10 16.0934 N/A
1:53 am 01:53 Clear 62 16.7 52 11.1 70 70 SSW 7 11 29.56 1001 10 16.0934 N/A
2:53 am 02:53 Mostly Cloudy 66 18.9 53 11.7 63 63 S 13 20 29.55 1001 10 16.0934 N/A
3:53 am 03:53 Mostly Cloudy 66 18.9 53 11.7 63 63 S 12 19 29.55 1001 10 16.0934 N/A
4:53 am 04:53 Mostly Cloudy 65 18.3 54 12.2 68 68 S 13 20 29.56 1001 10 16.0934 N/A
5:42 am 05:42 Cloudy 66 19 55 13 68 68 W 15 24 29.62 1003 10 16.0934 N/A
5:53 am 05:53 Cloudy 66 18.9 54 12.2 65 65 W 17 28 29.61 1003 10 16.0934 N/A
6:53 am 06:53 Mostly Clear 63 17.2 51 10.6 65 65 WSW 20 31 29.65 1004 10 16.0934 N/A
7:53 am 07:53 Partly Cloudy 60 15.6 45 7.2 58 58 WSW 28 44 29.71 1006 10 16.0934 N/A
8:53 am 08:53 Sunny 58 14.4 43 6.1 58 58 WSW 17 28 29.76 1008 10 16.0934 N/A
9:53 am 09:53 Sunny 58 14.4 41 5 53 53 SW 18 30 29.79 1009 10 16.0934 N/A
10:53 am 10:53 Partly Cloudy 59 15 41 5 51 51 WSW 23 37 29.8 1009 10 16.0934 N/A
11:53 am 11:53 Mostly Cloudy 61 16.1 39 3.9 44 44 W 25 41 29.83 1010 10 16.0934 N/A
12:53 pm 12:53 Partly Cloudy 61 16.1 39 3.9 44 44 W 23 37 29.85 1011 10 16.0934 N/A
1:53 pm 13:53 Sunny 62 16.7 36 2.2 38 38 W 20 31 29.86 1011 10 16.0934 N/A
2:53 pm 14:53 Mostly Sunny 62 16.7 33 0.6 34 34 W 21 33 29.86 1011 10 16.0934 N/A
3:53 pm 15:53 Partly Cloudy 63 17.2 35 1.7 35 35 WSW 15 24 29.87 1011 10 16.0934 N/A
4:53 pm 16:53 Mostly Cloudy 63 17.2 34 1.1 34 34 WSW 20 31 29.88 1012 10 16.0934 N/A
5:53 pm 17:53 Mostly Cloudy 61 16.1 32 undefined 34 34 SW 24 39 29.9 1013 10 16.0934 N/A
6:53 pm 18:53 Partly Cloudy 60 15.6 32 undefined 35 35 WSW 14 22 29.9 1013 10 16.0934 N/A
7:53 pm 19:53 Clear 55 12.8 32 undefined 42 42 SW 9 15 29.92 1013 10 16.0934 N/A
8:53 pm 20:53 Clear 55 12.8 32 undefined 42 42 SW 7 11 29.93 1013 10 16.0934 N/A
9:53 pm 21:53 Clear 53 11.7 34 1.1 48 48 SW 7 11 29.93 1014 10 16.0934 N/A
10:53 pm 22:53 Clear 52 11.1 35 1.7 53 53 SW 8 13 29.94 1014 10 16.0934 N/A
11:53 pm 23:53 Mostly Clear 52 11.1 35 1.7 53 53 SW 8 13 29.94 1014 10 16.0934 N/A

Powered by AerisWeather